Location: Sears
(37.7625°N, 100.1060°W)
Time: 21:56:00
(UTC+00:00)

CZ-4B R/B - Pass Details

Date: 29 October 2020
Orbit: 388 x 461 km, 97.6° (Epoch: 01 December)

Event Time Altitude Azimuth Distance (km) Brightness Sun altitude
Rises 12:02:45 0° 191° (S) 2,480 5.1 -12.5°
Reaches altitude 10° 12:05:01 10° 204° (SSW) 1,609 4.0 -12.1°
Maximum altitude 12:07:59 26° 263° (W) 942 2.5 -11.5°
Drops below altitude 10° 12:10:56 10° 322° (NW) 1,607 3.8 -10.9°
Enters shadow 12:11:43 - 328° (NNW) 1,895 4.2 -10.8°
